Location: Unspecified
(64.9000°N, 0.0000°E)
Time: 01:16:15
(UTC+00:00)

Altair - Pass Details

Date: 17 June 2019
Orbit: 1501 x 1683 km, 47.2° (Epoch: 19 August)

Event Time Altitude Azimuth Distance (km) Brightness Sun altitude
Rises 22:37:29 0° 227° (SW) 4,787 9.8 -0.2°
Reaches altitude 10° 22:41:11 10° 216° (SW) 3,832 9.3 -0.4°
Maximum altitude 22:48:42 26° 165° (SSE) 2,822 8.4 -0.6°
Drops below altitude 10° 22:56:23 10° 115° (ESE) 3,928 9.3 -0.8°
Sets 23:00:14 0° 104° (ESE) 4,930 9.9 -0.9°
